Overview Statistics Trail Chart Weather Telemetry Raw packets
 

This is the latest recevied weather packets stored in our database for station/object IR9AK-10. If no packets are shown the sender has not sent any weather packets the latest 10 day(s).

<< 34 35 36 37 38 39 40 >>
Time Temp. Humidity Pressure Rain* Wind** Luminosity Snow
1788068351 40.56° C 19% 1058.5 hPa - - - -
1788067752 40° C 19% 1058.5 hPa - - - -
1788067153 40° C 19% 1058.4 hPa - - - -
1788066554 40° C 19% 1058.5 hPa - - - -
1788065954 40° C 19% 1058.4 hPa - - - -
1788065355 39.44° C 19% 1058.6 hPa - - - -
1788064756 39.44° C 19% 1058.6 hPa - - - -
1788064158 39.44° C 19% 1058.6 hPa - - - -
1788063559 39.44° C 19% 1058.6 hPa - - - -
1788062959 39.44° C 20% 1058.7 hPa - - - -
1788062361 39.44° C 20% 1058.7 hPa - - - -
1788061762 39.44° C 21% 1058.8 hPa - - - -
1788061163 39.44° C 21% 1058.9 hPa - - - -
1788060563 39.44° C 23% 1058.9 hPa - - - -
1788059963 40° C 25% 1059 hPa - - - -
1788059364 40° C 24% 1058.9 hPa - - - -
1788058765 40° C 30% - - - - -
1788058167 40° C 31% 1059 hPa - - - -
1788057567 40° C 32% 1059.1 hPa - - - -
1788056968 40° C 34% 1059.3 hPa - - - -
1788056370 40.56° C 33% 1059.5 hPa - - - -
1788055771 40.56° C 32% 1059.6 hPa - - - -
1788055172 40.56° C 33% 1059.6 hPa - - - -
1788054573 40.56° C 31% 1059.6 hPa - - - -
1788053973 40° C 22% 1059.6 hPa - - - -

* Rain since midnight (hover to see other rain measurements)
** Current wind speed in m/s (hover to see current wind gust speed)